LNR57FX LFPG-LFKF

Flight info

Callsign LNR57FX
Flight time 1h 27m
Altitude 37000
Route LATRA DCT LAMUT DCT UTUVA DCT TITVA DCT NOQAS DCT OTROT DCT RETNO DCT KOLON DCT OMARD M623 VAREK
Aircraft A20N/M-SDE2E3FGHIJ1RWXY/LB1

Departure

Time 2026-04-18 11:35
Airport Charles de Gaulle International Airport (LFPG)

Arrival

Time 2026-04-18 13:03
Airport Figari Sud-Corse Airport (LFKF)
Time Latitude Longitude Altitude Speed Heading
2026-04-18 11:00 49.01347 2.55537 354 ft 0 kts 354°
2026-04-18 11:03 49.01346 2.55537 354 ft 0 kts 354°
2026-04-18 11:25 49.01331 2.55539 363 ft 4 kts 352°
2026-04-18 11:25 49.01305 2.55546 354 ft 4 kts 345°
2026-04-18 11:25 49.01280 2.55560 360 ft 4 kts 325°
2026-04-18 11:25 49.01266 2.55586 354 ft 2 kts 266°
2026-04-18 11:26 49.01266 2.55594 354 ft 0 kts 265°
2026-04-18 11:29 49.01266 2.55589 361 ft 0 kts 265°
2026-04-18 11:29 49.01265 2.55563 360 ft 5 kts 265°
2026-04-18 11:29 49.01260 2.55472 359 ft 12 kts 265°
2026-04-18 11:30 49.01252 2.55327 356 ft 14 kts 265°
2026-04-18 11:30 49.01270 2.55225 361 ft 10 kts 323°
2026-04-18 11:30 49.01352 2.55215 360 ft 14 kts 352°
2026-04-18 11:30 49.01468 2.55177 356 ft 20 kts 351°
2026-04-18 11:31 49.01602 2.55158 355 ft 18 kts 355°
2026-04-18 11:31 49.01711 2.55144 354 ft 12 kts 355°
2026-04-18 11:31 49.01798 2.55134 354 ft 13 kts 356°
2026-04-18 11:31 49.01868 2.55191 360 ft 12 kts 76°
2026-04-18 11:32 49.01875 2.55324 362 ft 14 kts 84°
2026-04-18 11:32 49.01884 2.55488 357 ft 17 kts 85°
2026-04-18 11:32 49.01893 2.55679 360 ft 19 kts 86°
2026-04-18 11:32 49.01904 2.55896 354 ft 22 kts 85°
2026-04-18 11:33 49.01916 2.56114 354 ft 20 kts 86°
2026-04-18 11:33 49.01936 2.56284 362 ft 15 kts 47°
2026-04-18 11:33 49.02038 2.56323 354 ft 16 kts 356°
2026-04-18 11:33 49.02144 2.56305 356 ft 15 kts 355°
2026-04-18 11:34 49.02251 2.56263 360 ft 17 kts 327°
2026-04-18 11:34 49.02311 2.56102 359 ft 19 kts 281°
2026-04-18 11:34 49.02299 2.55712 354 ft 70 kts 266°
2026-04-18 11:34 49.02240 2.54585 355 ft 142 kts 265°
2026-04-18 11:35 49.02136 2.52880 786 ft 168 kts 265°
2026-04-18 11:35 49.02000 2.51083 1635 ft 175 kts 263°
2026-04-18 11:35 49.01878 2.49226 2628 ft 179 kts 266°
2026-04-18 11:35 49.01801 2.47227 3350 ft 202 kts 265°
2026-04-18 11:36 49.01713 2.44978 4013 ft 222 kts 264°
2026-04-18 11:36 49.01597 2.42527 4634 ft 243 kts 263°
2026-04-18 11:36 49.01460 2.39863 5283 ft 259 kts 263°
2026-04-18 11:36 49.01312 2.37113 6268 ft 262 kts 263°
2026-04-18 11:37 49.01214 2.34314 7254 ft 266 kts 274°
2026-04-18 11:37 49.01734 2.31610 8265 ft 269 kts 290°
2026-04-18 11:37 49.02458 2.28992 9370 ft 266 kts 288°
2026-04-18 11:37 49.03014 2.26305 10365 ft 266 kts 282°
2026-04-18 11:38 49.03381 2.23462 10928 ft 284 kts 276°
2026-04-18 11:38 49.03613 2.20353 11334 ft 303 kts 274°
2026-04-18 11:38 49.03771 2.17131 12158 ft 307 kts 272°
2026-04-18 11:38 49.03907 2.13878 13053 ft 309 kts 271°
2026-04-18 11:39 49.03728 2.10638 13930 ft 311 kts 257°
2026-04-18 11:39 49.02948 2.07523 14699 ft 315 kts 241°
2026-04-18 11:39 49.01557 2.04911 15451 ft 323 kts 224°
2026-04-18 11:39 48.99638 2.03092 16194 ft 333 kts 206°
2026-04-18 11:40 48.97356 2.02331 16936 ft 345 kts 187°
2026-04-18 11:40 48.94916 2.02770 17670 ft 357 kts 173°
2026-04-18 11:40 48.92473 2.03575 18380 ft 361 kts 173°
2026-04-18 11:40 48.90013 2.04395 19004 ft 364 kts 173°
2026-04-18 11:41 48.87520 2.05218 19659 ft 367 kts 173°
2026-04-18 11:41 48.85021 2.06029 20277 ft 369 kts 174°
2026-04-18 11:41 48.82531 2.06821 20910 ft 372 kts 174°
2026-04-18 11:41 48.79958 2.07645 21554 ft 375 kts 174°
2026-04-18 11:42 48.77424 2.08827 22155 ft 385 kts 163°
2026-04-18 11:42 48.74937 2.10377 22753 ft 389 kts 163°
2026-04-18 11:42 48.72433 2.11966 23368 ft 391 kts 163°
2026-04-18 11:42 48.69916 2.13563 23941 ft 395 kts 163°
2026-04-18 11:43 48.67365 2.15173 24417 ft 398 kts 163°
2026-04-18 11:43 48.64836 2.16761 24919 ft 400 kts 163°
2026-04-18 11:43 48.62223 2.18395 25368 ft 404 kts 163°
2026-04-18 11:43 48.59619 2.20021 25810 ft 407 kts 163°
2026-04-18 11:44 48.57001 2.21654 26279 ft 409 kts 163°
2026-04-18 11:44 48.54355 2.23302 26748 ft 412 kts 163°
2026-04-18 11:44 48.52604 2.24391 27036 ft 413 kts 163°
2026-04-18 11:44 48.49933 2.26052 27483 ft 416 kts 163°
2026-04-18 11:45 48.47246 2.27720 27914 ft 419 kts 164°
2026-04-18 11:45 48.44543 2.29396 28307 ft 422 kts 164°
2026-04-18 11:45 48.41826 2.31079 28723 ft 424 kts 164°
2026-04-18 11:45 48.38193 2.33326 29180 ft 428 kts 163°
2026-04-18 11:46 48.36326 2.34480 29445 ft 430 kts 163°
2026-04-18 11:46 48.33559 2.36189 29827 ft 432 kts 163°
2026-04-18 11:46 48.30760 2.37916 30217 ft 435 kts 164°
2026-04-18 11:46 48.27961 2.39639 30537 ft 437 kts 164°
2026-04-18 11:47 48.25139 2.41375 30875 ft 439 kts 164°
2026-04-18 11:47 48.22318 2.43110 31262 ft 439 kts 164°
2026-04-18 11:47 48.19493 2.44845 31695 ft 438 kts 164°
2026-04-18 11:47 48.16717 2.46548 32089 ft 437 kts 164°
2026-04-18 11:48 48.13901 2.48272 32521 ft 436 kts 164°
2026-04-18 11:48 48.11101 2.49984 32947 ft 435 kts 164°
2026-04-18 11:48 48.08299 2.51673 33351 ft 432 kts 166°
2026-04-18 11:48 48.05467 2.53096 33732 ft 429 kts 168°
2026-04-18 11:49 48.02631 2.54489 34121 ft 428 kts 168°
2026-04-18 11:49 47.99797 2.55884 34423 ft 428 kts 168°
2026-04-18 11:49 47.96976 2.57272 34683 ft 428 kts 168°
2026-04-18 11:49 47.94145 2.58663 34940 ft 428 kts 168°
2026-04-18 11:50 47.91313 2.60055 35240 ft 428 kts 168°
2026-04-18 11:50 47.88488 2.61442 35520 ft 427 kts 168°
2026-04-18 11:50 47.85662 2.62828 35790 ft 427 kts 168°
2026-04-18 11:50 47.82856 2.64201 36056 ft 427 kts 168°
2026-04-18 11:51 47.80024 2.65584 36314 ft 426 kts 168°
2026-04-18 11:51 47.77210 2.66958 36575 ft 426 kts 168°
2026-04-18 11:51 47.74391 2.68334 36743 ft 426 kts 168°
2026-04-18 11:51 47.71580 2.69704 36970 ft 426 kts 168°
2026-04-18 11:52 47.68761 2.71077 37139 ft 426 kts 168°
2026-04-18 11:52 47.65942 2.72449 37179 ft 425 kts 168°
2026-04-18 11:52 47.60335 2.75173 37181 ft 424 kts 168°
2026-04-18 11:53 47.54718 2.77894 37175 ft 425 kts 168°
2026-04-18 11:53 47.49091 2.80612 37179 ft 425 kts 168°
2026-04-18 11:54 47.43483 2.83320 37181 ft 425 kts 168°
2026-04-18 11:54 47.37844 2.86030 37182 ft 428 kts 168°
2026-04-18 11:55 47.32121 2.88772 37184 ft 437 kts 167°
2026-04-18 11:55 47.26270 2.91571 37184 ft 446 kts 167°
2026-04-18 11:56 47.20434 2.94366 37181 ft 446 kts 167°
2026-04-18 11:56 47.14463 2.97217 37181 ft 446 kts 167°
2026-04-18 11:57 47.08590 2.99919 37184 ft 445 kts 169°
2026-04-18 11:57 47.02595 3.02332 37184 ft 444 kts 170°
2026-04-18 11:58 46.96683 3.04718 37180 ft 443 kts 170°
2026-04-18 11:58 46.90744 3.07145 37169 ft 442 kts 169°
2026-04-18 11:59 46.84819 3.09573 37162 ft 442 kts 169°
2026-04-18 11:59 46.78892 3.11995 37163 ft 442 kts 169°
2026-04-18 12:00 46.72966 3.14411 37164 ft 442 kts 169°
2026-04-18 12:00 46.67040 3.16819 37168 ft 443 kts 169°
2026-04-18 12:01 46.58138 3.20428 37172 ft 443 kts 169°
2026-04-18 12:02 46.52185 3.22834 37149 ft 444 kts 169°
2026-04-18 12:02 46.46233 3.25235 37172 ft 444 kts 169°
2026-04-18 12:03 46.40274 3.27632 37181 ft 445 kts 169°
2026-04-18 12:03 46.34297 3.30034 37187 ft 446 kts 169°
2026-04-18 12:04 46.28317 3.32428 37189 ft 446 kts 169°
2026-04-18 12:04 46.22329 3.34822 37195 ft 447 kts 169°
2026-04-18 12:05 46.16379 3.37195 37186 ft 446 kts 169°
2026-04-18 12:05 46.10407 3.39572 37178 ft 445 kts 169°
2026-04-18 12:06 46.04432 3.41943 37183 ft 445 kts 169°
2026-04-18 12:06 45.98456 3.44312 37185 ft 445 kts 169°
2026-04-18 12:07 45.92482 3.46676 37189 ft 445 kts 169°
2026-04-18 12:07 45.86611 3.49544 37184 ft 451 kts 160°
2026-04-18 12:08 45.81096 3.53990 37187 ft 458 kts 150°
2026-04-18 12:08 45.75796 3.59046 37196 ft 458 kts 151°
2026-04-18 12:09 45.70459 3.64079 37188 ft 458 kts 151°
2026-04-18 12:09 45.65122 3.69078 37207 ft 459 kts 151°
2026-04-18 12:10 45.59781 3.74071 37210 ft 459 kts 151°
2026-04-18 12:10 45.54439 3.79058 37187 ft 458 kts 151°
2026-04-18 12:11 45.49120 3.84010 37185 ft 456 kts 151°
2026-04-18 12:11 45.43800 3.88950 37196 ft 457 kts 151°
2026-04-18 12:12 45.38556 3.94094 37189 ft 460 kts 144°
2026-04-18 12:12 45.33982 4.00532 37192 ft 466 kts 132°
2026-04-18 12:13 45.30132 4.07982 37195 ft 468 kts 128°
2026-04-18 12:13 45.26326 4.15464 37201 ft 468 kts 129°
2026-04-18 12:14 45.22526 4.22884 37196 ft 468 kts 129°
2026-04-18 12:14 45.18698 4.30328 37195 ft 467 kts 128°
2026-04-18 12:15 45.14863 4.37766 37184 ft 467 kts 129°
2026-04-18 12:15 45.10995 4.45147 37185 ft 466 kts 132°
2026-04-18 12:16 45.06768 4.52071 37184 ft 465 kts 133°
2026-04-18 12:16 45.02531 4.58988 37171 ft 464 kts 133°
2026-04-18 12:17 44.98299 4.65882 37162 ft 464 kts 133°
2026-04-18 12:17 44.94064 4.72765 37156 ft 464 kts 133°
2026-04-18 12:18 44.89822 4.79644 37157 ft 464 kts 133°
2026-04-18 12:18 44.85584 4.86497 37153 ft 463 kts 133°
2026-04-18 12:19 44.81353 4.93325 37151 ft 463 kts 133°
2026-04-18 12:19 44.77108 5.00158 37152 ft 463 kts 133°
2026-04-18 12:20 44.72859 5.06982 37144 ft 463 kts 133°
2026-04-18 12:20 44.68615 5.13777 37140 ft 463 kts 133°
2026-04-18 12:21 44.64369 5.20563 37120 ft 462 kts 133°
2026-04-18 12:21 44.60152 5.27287 37114 ft 461 kts 133°
2026-04-18 12:22 44.55915 5.34031 37127 ft 461 kts 133°
2026-04-18 12:22 44.51633 5.40818 37132 ft 465 kts 133°
2026-04-18 12:23 44.47351 5.47595 37127 ft 465 kts 133°
2026-04-18 12:23 44.43063 5.54366 37127 ft 464 kts 133°
2026-04-18 12:24 44.38778 5.61131 37122 ft 465 kts 131°
2026-04-18 12:24 44.35000 5.68483 37121 ft 466 kts 125°
2026-04-18 12:25 44.31375 5.75990 37127 ft 467 kts 125°
2026-04-18 12:25 44.27734 5.83485 37129 ft 467 kts 126°
2026-04-18 12:26 44.24081 5.90974 37130 ft 467 kts 126°
2026-04-18 12:26 44.20424 5.98452 37121 ft 467 kts 126°
2026-04-18 12:27 44.16757 6.05933 37124 ft 467 kts 126°
2026-04-18 12:27 44.13086 6.13400 37129 ft 467 kts 126°
2026-04-18 12:28 44.09413 6.20858 37125 ft 467 kts 126°
2026-04-18 12:28 44.05739 6.28291 37134 ft 466 kts 126°
2026-04-18 12:29 44.02060 6.35717 37133 ft 467 kts 126°
2026-04-18 12:29 43.98373 6.43143 37138 ft 467 kts 126°
2026-04-18 12:30 43.94686 6.50547 37137 ft 467 kts 126°
2026-04-18 12:30 43.90995 6.57942 37135 ft 466 kts 126°
2026-04-18 12:31 43.87301 6.65326 37136 ft 465 kts 126°
2026-04-18 12:31 43.83605 6.72691 37134 ft 465 kts 126°
2026-04-18 12:32 43.79917 6.80021 37120 ft 465 kts 126°
2026-04-18 12:32 43.76212 6.87369 37122 ft 465 kts 126°
2026-04-18 12:33 43.72270 6.94348 37122 ft 464 kts 134°
2026-04-18 12:33 43.67473 7.00303 37120 ft 463 kts 145°
2026-04-18 12:34 43.62323 7.05631 37124 ft 463 kts 144°
2026-04-18 12:34 43.57173 7.10992 37122 ft 463 kts 144°
2026-04-18 12:35 43.52859 7.15480 37136 ft 464 kts 144°
2026-04-18 12:35 43.47706 7.20826 37135 ft 465 kts 144°
2026-04-18 12:36 43.42531 7.26182 37126 ft 465 kts 144°
2026-04-18 12:36 43.37390 7.31490 37140 ft 465 kts 144°
2026-04-18 12:37 43.32217 7.36819 37139 ft 465 kts 144°
2026-04-18 12:37 43.27038 7.42145 37135 ft 465 kts 144°
2026-04-18 12:38 43.21856 7.47461 37133 ft 465 kts 144°
2026-04-18 12:38 43.16692 7.52744 37131 ft 464 kts 144°
2026-04-18 12:39 43.11401 7.57818 37129 ft 463 kts 151°
2026-04-18 12:39 43.05606 7.61574 37133 ft 460 kts 162°
2026-04-18 12:40 42.99576 7.64532 37134 ft 460 kts 162°
2026-04-18 12:40 42.93552 7.67516 37135 ft 460 kts 161°
2026-04-18 12:41 42.87520 7.70502 36787 ft 461 kts 161°
2026-04-18 12:41 42.84507 7.71993 36533 ft 460 kts 161°
2026-04-18 12:41 42.81496 7.73481 36272 ft 461 kts 161°
2026-04-18 12:41 42.78480 7.74969 36016 ft 461 kts 161°
2026-04-18 12:42 42.75470 7.76453 35769 ft 461 kts 161°
2026-04-18 12:42 42.72446 7.77941 35513 ft 462 kts 161°
2026-04-18 12:42 42.69412 7.79434 35035 ft 464 kts 161°
2026-04-18 12:42 42.66363 7.80932 34300 ft 468 kts 161°
2026-04-18 12:43 42.63282 7.82444 33290 ft 474 kts 161°
2026-04-18 12:43 42.60187 7.83961 32516 ft 473 kts 161°
2026-04-18 12:43 42.57133 7.85457 31706 ft 473 kts 161°
2026-04-18 12:43 42.54036 7.86973 31053 ft 470 kts 161°
2026-04-18 12:44 42.50976 7.88469 30465 ft 466 kts 161°
2026-04-18 12:44 42.47926 7.89959 29822 ft 463 kts 161°
2026-04-18 12:44 42.44916 7.91427 29195 ft 458 kts 160°
2026-04-18 12:44 42.41931 7.92882 28609 ft 453 kts 160°
2026-04-18 12:45 42.38978 7.94320 28008 ft 449 kts 160°
2026-04-18 12:45 42.36053 7.95742 27415 ft 445 kts 160°
2026-04-18 12:45 42.33213 7.97347 26832 ft 441 kts 152°
2026-04-18 12:45 42.30640 7.99547 26242 ft 436 kts 141°
2026-04-18 12:46 42.28408 8.02283 25661 ft 431 kts 131°
2026-04-18 12:46 42.26406 8.05268 25085 ft 428 kts 130°
2026-04-18 12:46 42.24410 8.08239 24510 ft 425 kts 130°
2026-04-18 12:46 42.22430 8.11172 23917 ft 424 kts 130°
2026-04-18 12:47 42.20437 8.14119 23239 ft 423 kts 130°
2026-04-18 12:47 42.18467 8.17028 22731 ft 417 kts 130°
2026-04-18 12:47 42.16521 8.19894 22160 ft 413 kts 130°
2026-04-18 12:47 42.14593 8.22732 21585 ft 409 kts 130°
2026-04-18 12:48 42.12681 8.25543 21032 ft 405 kts 130°
2026-04-18 12:48 42.10786 8.28329 20468 ft 402 kts 130°
2026-04-18 12:48 42.08909 8.31085 19908 ft 399 kts 131°
2026-04-18 12:48 42.07034 8.33834 19351 ft 396 kts 131°
2026-04-18 12:49 42.05175 8.36558 18752 ft 395 kts 131°
2026-04-18 12:49 42.03323 8.39270 18205 ft 392 kts 131°
2026-04-18 12:49 42.01492 8.41949 17640 ft 388 kts 131°
2026-04-18 12:49 41.99673 8.44607 17093 ft 384 kts 131°
2026-04-18 12:50 41.97877 8.47230 16546 ft 380 kts 131°
2026-04-18 12:50 41.96099 8.49823 16008 ft 377 kts 131°
2026-04-18 12:50 41.94328 8.52404 15464 ft 374 kts 131°
2026-04-18 12:50 41.92577 8.54955 14941 ft 371 kts 131°
2026-04-18 12:51 41.90831 8.57496 14404 ft 369 kts 131°
2026-04-18 12:51 41.89094 8.60021 13873 ft 366 kts 131°
2026-04-18 12:51 41.87374 8.62519 13325 ft 363 kts 131°
2026-04-18 12:51 41.85672 8.64987 12810 ft 359 kts 131°
2026-04-18 12:52 41.83981 8.67437 12297 ft 355 kts 131°
2026-04-18 12:52 41.82309 8.69859 11790 ft 352 kts 131°
2026-04-18 12:52 41.80659 8.72246 11440 ft 344 kts 131°
2026-04-18 12:52 41.79072 8.74539 11270 ft 326 kts 131°
2026-04-18 12:53 41.77579 8.76693 11156 ft 304 kts 131°
2026-04-18 12:53 41.76121 8.78537 11095 ft 283 kts 138°
2026-04-18 12:53 41.74625 8.80249 10811 ft 277 kts 137°
2026-04-18 12:53 41.73184 8.81916 10472 ft 270 kts 137°
2026-04-18 12:54 41.71802 8.83518 10142 ft 263 kts 137°
2026-04-18 12:54 41.70437 8.85098 9751 ft 257 kts 137°
2026-04-18 12:54 41.69095 8.86650 9379 ft 254 kts 137°
2026-04-18 12:54 41.67760 8.88191 9016 ft 251 kts 137°
2026-04-18 12:55 41.66427 8.89725 8704 ft 256 kts 137°
2026-04-18 12:55 41.65077 8.91276 8376 ft 255 kts 137°
2026-04-18 12:55 41.63746 8.92811 8052 ft 251 kts 137°
2026-04-18 12:55 41.62429 8.94329 7742 ft 250 kts 137°
2026-04-18 12:56 41.61115 8.95840 7435 ft 249 kts 137°
2026-04-18 12:56 41.59800 8.97349 7132 ft 249 kts 137°
2026-04-18 12:56 41.58491 8.98853 6814 ft 247 kts 137°
2026-04-18 12:56 41.57200 9.00337 6519 ft 242 kts 137°
2026-04-18 12:57 41.55932 9.01807 6128 ft 242 kts 137°
2026-04-18 12:57 41.54689 9.03333 5728 ft 242 kts 134°
2026-04-18 12:57 41.53464 9.04807 5622 ft 230 kts 136°
2026-04-18 12:57 41.52298 9.06199 5492 ft 219 kts 135°
2026-04-18 12:58 41.51198 9.07512 5168 ft 207 kts 136°
2026-04-18 12:58 41.50146 9.08774 4744 ft 201 kts 136°
2026-04-18 12:58 41.49145 9.09965 4541 ft 187 kts 135°
2026-04-18 12:58 41.48198 9.11093 4242 ft 178 kts 134°
2026-04-18 12:59 41.47384 9.12273 3942 ft 171 kts 114°
2026-04-18 12:59 41.47229 9.13788 3603 ft 166 kts 72°
2026-04-18 12:59 41.47789 9.15112 3299 ft 166 kts 52°
2026-04-18 12:59 41.48462 9.16345 3098 ft 163 kts 50°
2026-04-18 13:00 41.49155 9.17531 2675 ft 164 kts 48°
2026-04-18 13:00 41.49901 9.18651 2339 ft 156 kts 43°
2026-04-18 13:00 41.50897 9.19206 2108 ft 163 kts 355°
2026-04-18 13:00 41.51908 9.18575 2071 ft 166 kts 322°
2026-04-18 13:01 41.52729 9.17528 1935 ft 165 kts 298°
2026-04-18 13:01 41.52963 9.16047 1692 ft 163 kts 268°
2026-04-18 13:01 41.52792 9.14548 1222 ft 163 kts 256°
2026-04-18 13:01 41.52392 9.13146 725 ft 159 kts 239°
2026-04-18 13:02 41.51773 9.11979 380 ft 148 kts 228°
2026-04-18 13:02 41.51126 9.11002 147 ft 134 kts 224°
2026-04-18 13:02 41.50536 9.10152 66 ft 109 kts 227°
2026-04-18 13:02 41.50164 9.09611 68 ft 50 kts 227°
2026-04-18 13:03 41.50011 9.09391 70 ft 31 kts 226°
2026-04-18 13:03 41.49881 9.09265 64 ft 5 kts 259°
2026-04-18 13:03 41.49910 9.09245 66 ft 8 kts 355°
2026-04-18 13:04 41.49973 9.09327 70 ft 17 kts 50°
2026-04-18 13:04 41.50066 9.09460 68 ft 21 kts 46°
2026-04-18 13:04 41.50159 9.09598 61 ft 19 kts 48°
2026-04-18 13:04 41.50189 9.09702 70 ft 6 kts 125°
2026-04-18 13:05 41.50154 9.09741 66 ft 7 kts 138°
2026-04-18 13:05 41.50109 9.09796 65 ft 10 kts 136°
2026-04-18 13:05 41.50065 9.09811 65 ft 8 kts 199°
2026-04-18 13:05 41.50028 9.09787 66 ft 4 kts 160°
2026-04-18 13:06 41.50004 9.09812 72 ft 4 kts 138°
2026-04-18 13:06 41.49996 9.09823 72 ft 0 kts 138°
2026-04-18 13:06 41.49994 9.09825 72 ft 0 kts 138°